Flight Track Log - Related Links

Times and Time Zones

All times are in EDT time to prevent confusion due to time zone crossing. See the ASQ5547 flight status page for this flight to view local times or setup timezone preferences in your user account.

Time Position Orientation Groundspeed Altitude Reporting Facility
EDT Latitude Longitude Course Direction KTS MPH feet Rate Location/Type
08:24PM 39.0333 -84.6667 90° East 152 175 1,500  Level Cincinnati TRACON
08:25PM 39.0333 -84.6000 90° East 230 265 3,500 2,190 Climbing Cincinnati TRACON
08:26PM 39.0500 -84.5167 76° East 266 306 6,100 2,517 Climbing Cincinnati TRACON
08:28PM 39.0878 -84.3425 74° East 296 341 10,800 2,318 Climbing Indianapolis Center
08:29PM 39.1117 -84.2297 75° East 324 373 12,900 2,177 Climbing Indianapolis Center
08:30PM 39.1369 -84.0864 77° East 350 403 15,300 2,146 Climbing Indianapolis Center
08:31PM 39.1633 -83.9578 75° East 369 425 17,300 1,902 Climbing Indianapolis Center
08:32PM 39.1894 -83.8206 76° East 389 448 19,200 1,742 Climbing Indianapolis Center
08:33PM 39.2169 -83.6822 76° East 396 456 20,900 1,597 Climbing Indianapolis Center
08:34PM 39.2439 -83.5383 76° East 408 470 22,500 1,415 Climbing Indianapolis Center
08:35PM 39.2728 -83.3889 76° East 425 489 23,800 1,268 Climbing Indianapolis Center
08:36PM 39.3019 -83.2364 76° East 434 499 25,100 1,268 Climbing Indianapolis Center
08:37PM 39.3319 -83.0808 76° East 443 510 26,400 1,366 Climbing Indianapolis Center
08:38PM 39.3658 -82.8981 76° East 446 513 27,900 1,355 Climbing Indianapolis Center
08:39PM 39.3958 -82.7397 76° East 451 519 29,200 1,171 Climbing Indianapolis Center
08:40PM 39.4239 -82.5831 77° East 447 514 30,300 1,073 Climbing Indianapolis Center
08:41PM 39.4531 -82.4219 77° East 455 524 31,400 871 Climbing Indianapolis Center
08:42PM 39.4825 -82.2592 77° East 461 531 32,100 732 Climbing Indianapolis Center
08:43PM 39.5147 -82.0803 77° East 469 540 32,900 439 Climbing Indianapolis Center
08:44PM 39.5453 -81.9142 77° East 472 543 33,000 49 Climbing Indianapolis Center
08:45PM 39.5747 -81.7461 77° East 475 547 33,000  Level Indianapolis Center
08:46PM 39.6039 -81.5794 77° East 473 544 33,000  Level Indianapolis Center
08:47PM 39.6319 -81.4131 78° East 470 541 33,000  Level Indianapolis Center
08:48PM 39.6478 -81.3297 76° East 471 542 33,000  Level Cleveland Center
08:49PM 39.6758 -81.1656 77° East 471 542 33,000  Level Cleveland Center
08:50PM 39.7058 -81.0014 77° East 471 542 33,000  Level Cleveland Center
08:51PM 39.7292 -80.8367 80° East 471 542 33,000  Level Cleveland Center
08:52PM 39.7253 -80.6642 92° East 471 542 33,000  Level Cleveland Center
08:53PM 39.7128 -80.3564 93° East 489 563 33,000  Level Indianapolis Center
08:54PM 39.7053 -80.1806 93° East 488 562 33,000 -195 Level Indianapolis Center
08:55PM 39.6997 -80.0064 92° East 489 563 32,600 -1,406 Descending Indianapolis Center
08:57PM 39.6936 -79.8203 92° East 490 564 30,000 -1,922 Descending Washington Center
08:58PM 39.6872 -79.6472 93° East 485 558 28,500 -1,475 Descending Washington Center
08:59PM 39.6822 -79.4769 92° East 480 552 27,000 -1,513 Descending Washington Center
09:00PM 39.6733 -79.3014 94° East 480 552 25,500 -1,017 Descending Washington Center
09:01PM 39.6661 -79.1231 93° East 480 552 25,000 -694 Descending Washington Center
09:02PM 39.6356 -78.9544 103° East 480 552 24,100 -1,438 Descending Washington Center
09:03PM 39.5942 -78.7856 108° East 480 552 22,100 -1,983 Descending Washington Center
09:04PM 39.5608 -78.6253 105° East 480 552 20,100 -2,017 Descending Washington Center
09:05PM 39.5253 -78.4703 107° East 459 528 18,100 -1,866 Descending Washington Center
09:06PM 39.4911 -78.3183 106° East 448 516 16,400 -1,488 Descending Washington Center
09:07PM 39.4569 -78.1692 106° East 435 501 15,100 -645 Descending Washington Center
09:08PM 39.4308 -78.0206 103° East 430 495 15,100 -50 Level Washington Center
09:09PM 39.4339 -77.8700 88° East 424 488 15,000 -763 Descending Washington Center
09:10PM 39.4386 -77.7172 88° East 416 479 13,600 -1,765 Descending Washington Center
09:11PM 39.4411 -77.5800 89° East 409 471 11,500 -1,279 Descending Washington Center
09:12PM 39.4431 -77.4539 89° East 378 435 11,000 -248 Descending Washington Center
09:13PM 39.4467 -77.3492 87° East 329 379 11,000 73 Level Washington Center
09:13PM 39.4500 -77.2833 86° East 298 343 11,100 -732 Climbing Potomac TRACON
09:14PM 39.4833 -77.1833 67° East 294 338 10,000 -1,300 Descending Potomac TRACON
09:15PM 39.5000 -77.1000 75° East 281 323 8,500 -967 Descending Potomac TRACON
09:17PM 39.5833 -76.9500 54° Northeast 222 255 7,100 -467 Descending Potomac TRACON
09:18PM 39.6000 -76.8833 72° East 220 253 7,100 -250 Level Potomac TRACON
09:19PM 39.5833 -76.8000 105° East 226 260 6,600 -1,000 Descending Potomac TRACON
09:20PM 39.5333 -76.7500 142° Southeast 211 243 5,100 -1,250 Descending Potomac TRACON
09:21PM 39.5000 -76.7333 159° South 226 260 4,100 -500 Descending Potomac TRACON
09:22PM 39.4500 -76.8000 226° Southwest 226 260 4,100 -300 Level Potomac TRACON
09:23PM 39.4167 -76.8667 237° Southwest 225 259 3,500 -500 Descending Potomac TRACON
09:24PM 39.3833 -76.9333 237° Southwest 228 262 3,100 -133 Descending Potomac TRACON
09:26PM 39.2833 -77.0000 207° Southwest 175 201 3,100 -33 Level Potomac TRACON
09:27PM 39.2333 -77.0167 194° South 173 199 3,000 -50 Descending Potomac TRACON
09:28PM 39.2000 -76.9833 142° Southeast 153 176 3,000  Level Potomac TRACON
09:29PM 39.1833 -76.9333 113° Southeast 153 176 3,000  Level Potomac TRACON
09:30PM 39.1833 -76.8833 90° East 155 178 3,000 -350 Level Potomac TRACON
09:31PM 39.1833 -76.8167 90° East 159 183 2,300 -700 Descending Potomac TRACON
09:32PM 39.1833 -76.7833 90° East 128 147 1,600 -700 Descending Potomac TRACON

Login

Don't have an account? Register now (free) for customized features, flight alerts, and more!